Time,TemperatureF,DewpointF,PressureIn,WindDirection,WindDirectionDegrees,WindSpeedMPH,WindSpeedGustMPH,Humidity,HourlyPrecipIn,Conditions,Clouds,dailyrainin,SoftwareType,DateUTC
2013-07-21 00:01:00,79.5,30.9,0.00,West,265,0.0,0.0,17,0.00,,---,0.00,VWS V14.01,2013-07-21 04:01:00,
2013-07-21 00:02:00,79.5,30.9,0.00,West,265,0.0,0.0,17,0.00,,---,0.00,VWS V14.01,2013-07-21 04:02:00,
2013-07-21 00:07:00,79.3,30.8,0.00,West,265,0.0,0.0,17,0.00,,---,0.00,VWS V14.01,2013-07-21 04:07:00,
2013-07-21 00:09:00,79.3,30.8,0.00,West,265,0.0,0.0,17,0.00,,---,0.00,VWS V14.01,2013-07-21 04:09:00,
2013-07-21 00:14:00,79.5,30.9,0.00,West,265,0.0,0.0,17,0.00,,---,0.00,VWS V14.01,2013-07-21 04:14:00,
2013-07-21 00:19:00,79.7,31.1,0.00,West,265,0.0,0.0,17,0.00,,---,0.00,VWS V14.01,2013-07-21 04:19:00,
2013-07-21 00:25:00,79.7,31.1,0.00,West,265,0.0,0.0,17,0.00,,---,0.00,VWS V14.01,2013-07-21 04:25:00,
2013-07-21 00:31:00,79.9,31.2,0.00,West,265,0.0,0.0,17,0.00,,---,0.00,VWS V14.01,2013-07-21 04:31:00,
2013-07-21 00:37:00,79.9,31.2,0.00,West,265,0.0,0.0,17,0.00,,---,0.00,VWS V14.01,2013-07-21 04:37:00,
2013-07-21 00:43:00,79.9,31.2,0.00,West,265,0.0,0.0,17,0.00,,---,0.00,VWS V14.01,2013-07-21 04:43:00,
2013-07-21 00:48:00,79.7,31.1,0.00,West,265,0.0,0.0,17,0.00,,---,0.00,VWS V14.01,2013-07-21 04:48:00,
2013-07-21 00:53:00,79.5,35.0,0.00,West,265,0.0,0.0,20,0.00,,---,0.00,VWS V14.01,2013-07-21 04:53:00,
2013-07-21 00:58:00,79.0,34.5,0.00,West,265,0.0,0.0,20,0.00,,---,0.00,VWS V14.01,2013-07-21 04:58:00,
2013-07-21 01:04:00,78.3,33.9,0.00,West,265,0.0,0.0,20,0.00,,---,0.00,VWS V14.01,2013-07-21 05:04:00,
2013-07-21 01:09:00,77.9,33.6,0.00,West,265,0.0,0.0,20,0.00,,---,0.00,VWS V14.01,2013-07-21 05:09:00,
2013-07-21 01:14:00,77.5,34.6,0.00,West,265,0.0,0.0,21,0.00,,---,0.00,VWS V14.01,2013-07-21 05:14:00,
2013-07-21 01:19:00,77.4,34.4,0.00,West,265,0.0,0.0,21,0.00,,---,0.00,VWS V14.01,2013-07-21 05:19:00,
2013-07-21 01:25:00,77.2,34.3,0.00,West,265,0.0,0.0,21,0.00,,---,0.00,VWS V14.01,2013-07-21 05:25:00,
2013-07-21 01:31:00,77.2,35.4,0.00,West,265,0.0,0.0,22,0.00,,---,0.00,VWS V14.01,2013-07-21 05:31:00,
2013-07-21 01:37:00,77.2,36.5,0.00,West,265,0.0,0.0,23,0.00,,---,0.00,VWS V14.01,2013-07-21 05:37:00,
2013-07-21 01:43:00,77.2,36.5,0.00,West,265,0.0,0.0,23,0.00,,---,0.00,VWS V14.01,2013-07-21 05:43:00,
2013-07-21 01:48:00,77.2,37.6,0.00,West,265,0.0,0.0,24,0.00,,---,0.00,VWS V14.01,2013-07-21 05:48:00,
2013-07-21 01:53:00,77.4,37.8,0.00,West,265,0.0,0.0,24,0.00,,---,0.00,VWS V14.01,2013-07-21 05:53:00,
2013-07-21 01:58:00,77.4,38.8,0.00,West,265,0.0,0.0,25,0.00,,---,0.00,VWS V14.01,2013-07-21 05:58:00,
2013-07-21 02:04:00,77.5,39.0,0.00,West,265,0.0,0.0,25,0.00,,---,0.00,VWS V14.01,2013-07-21 06:04:00,
2013-07-21 02:10:00,77.5,40.0,0.00,West,265,0.0,0.0,26,0.00,,---,0.00,VWS V14.01,2013-07-21 06:10:00,
2013-07-21 02:15:00,77.5,40.0,0.00,West,265,0.0,0.0,26,0.00,,---,0.00,VWS V14.01,2013-07-21 06:15:00,
2013-07-21 02:21:00,77.7,39.1,0.00,West,265,0.0,0.0,25,0.00,,---,0.00,VWS V14.01,2013-07-21 06:21:00,
2013-07-21 02:26:00,77.7,39.1,0.00,West,265,0.0,0.0,25,0.00,,---,0.00,VWS V14.01,2013-07-21 06:26:00,
2013-07-21 02:32:00,77.7,39.1,0.00,West,265,0.0,0.0,25,0.00,,---,0.00,VWS V14.01,2013-07-21 06:32:00,
2013-07-21 02:38:00,77.7,39.1,0.00,West,265,0.0,0.0,25,0.00,,---,0.00,VWS V14.01,2013-07-21 06:38:00,
2013-07-21 02:43:00,77.5,39.0,0.00,West,265,0.0,0.0,25,0.00,,---,0.00,VWS V14.01,2013-07-21 06:43:00,
2013-07-21 02:49:00,77.4,39.8,0.00,West,265,0.0,0.0,26,0.00,,---,0.00,VWS V14.01,2013-07-21 06:49:00,
2013-07-21 02:54:00,77.4,39.8,0.00,West,265,0.0,0.0,26,0.00,,---,0.00,VWS V14.01,2013-07-21 06:54:00,
2013-07-21 03:00:00,77.4,40.8,0.00,West,265,0.0,0.0,27,0.00,,---,0.00,VWS V14.01,2013-07-21 07:00:00,
2013-07-21 03:06:00,77.4,40.8,0.00,West,265,0.0,0.0,27,0.00,,---,0.00,VWS V14.01,2013-07-21 07:06:00,
2013-07-21 03:11:00,77.4,40.8,0.00,West,265,0.0,0.0,27,0.00,,---,0.00,VWS V14.01,2013-07-21 07:11:00,
2013-07-21 03:16:00,77.2,41.6,0.00,West,265,0.0,0.0,28,0.00,,---,0.00,VWS V14.01,2013-07-21 07:16:00,
2013-07-21 03:21:00,77.0,41.4,0.00,West,265,0.0,0.0,28,0.00,,---,0.00,VWS V14.01,2013-07-21 07:21:00,
2013-07-21 03:26:00,77.0,41.4,0.00,West,265,0.0,0.0,28,0.00,,---,0.00,VWS V14.01,2013-07-21 07:26:00,
2013-07-21 03:32:00,76.8,42.2,0.00,West,265,0.0,0.0,29,0.00,,---,0.00,VWS V14.01,2013-07-21 07:32:00,
2013-07-21 03:37:00,76.8,43.1,0.00,West,265,0.0,0.0,30,0.00,,---,0.00,VWS V14.01,2013-07-21 07:37:00,
2013-07-21 03:42:00,76.8,43.1,0.00,West,265,0.0,0.0,30,0.00,,---,0.00,VWS V14.01,2013-07-21 07:42:00,
2013-07-21 03:48:00,76.8,43.1,0.00,West,265,0.0,0.0,30,0.00,,---,0.00,VWS V14.01,2013-07-21 07:48:00,
2013-07-21 03:53:00,76.6,43.8,0.00,West,265,0.0,0.0,31,0.00,,---,0.00,VWS V14.01,2013-07-21 07:53:00,
2013-07-21 03:59:00,76.6,43.8,0.00,West,265,0.0,0.0,31,0.00,,---,0.00,VWS V14.01,2013-07-21 07:59:00,
2013-07-21 04:05:00,76.5,43.6,0.00,West,265,0.0,0.0,31,0.00,,---,0.00,VWS V14.01,2013-07-21 08:05:00,
2013-07-21 04:10:00,76.5,43.6,0.00,West,265,0.0,0.0,31,0.00,,---,0.00,VWS V14.01,2013-07-21 08:10:00,
2013-07-21 04:16:00,76.3,43.5,0.00,West,265,0.0,0.0,31,0.00,,---,0.00,VWS V14.01,2013-07-21 08:16:00,
2013-07-21 04:21:00,76.3,43.5,0.00,West,265,0.0,0.0,31,0.00,,---,0.00,VWS V14.01,2013-07-21 08:21:00,
2013-07-21 04:27:00,76.1,43.3,0.00,West,265,0.0,0.0,31,0.00,,---,0.00,VWS V14.01,2013-07-21 08:27:00,
2013-07-21 04:32:00,76.1,43.3,0.00,West,265,0.0,0.0,31,0.00,,---,0.00,VWS V14.01,2013-07-21 08:32:00,
2013-07-21 04:38:00,75.9,43.1,0.00,West,265,0.0,0.0,31,0.00,,---,0.00,VWS V14.01,2013-07-21 08:38:00,
2013-07-21 04:44:00,75.9,44.0,0.00,West,265,0.0,0.0,32,0.00,,---,0.00,VWS V14.01,2013-07-21 08:44:00,
2013-07-21 04:49:00,75.9,44.0,0.00,West,265,0.0,0.0,32,0.00,,---,0.00,VWS V14.01,2013-07-21 08:49:00,
2013-07-21 04:55:00,75.9,44.0,0.00,West,265,0.0,0.0,32,0.00,,---,0.00,VWS V14.01,2013-07-21 08:55:00,
2013-07-21 05:00:00,75.9,44.0,0.00,West,265,0.0,0.0,32,0.00,,---,0.00,VWS V14.01,2013-07-21 09:00:00,
2013-07-21 05:06:00,75.9,44.0,0.00,West,265,0.0,0.0,32,0.00,,---,0.00,VWS V14.01,2013-07-21 09:06:00,
2013-07-21 05:12:00,75.9,44.0,0.00,West,265,0.0,0.0,32,0.00,,---,0.00,VWS V14.01,2013-07-21 09:12:00,
2013-07-21 05:17:00,75.9,44.0,0.00,West,265,0.0,0.0,32,0.00,,---,0.00,VWS V14.01,2013-07-21 09:17:00,
2013-07-21 05:23:00,75.7,43.8,0.00,West,265,0.0,0.0,32,0.00,,---,0.00,VWS V14.01,2013-07-21 09:23:00,
2013-07-21 05:28:00,75.7,43.8,0.00,NNW,333,0.0,0.0,32,0.00,,---,0.00,VWS V14.01,2013-07-21 09:28:00,
2013-07-21 05:34:00,75.9,44.0,0.00,North,349,0.0,0.0,32,0.00,,---,0.00,VWS V14.01,2013-07-21 09:34:00,
2013-07-21 05:40:00,75.9,44.0,0.00,NNE,26,0.0,4.0,32,0.00,,---,0.00,VWS V14.01,2013-07-21 09:40:00,
2013-07-21 05:45:00,75.7,43.0,0.00,North,4,0.0,3.1,31,0.00,,---,0.00,VWS V14.01,2013-07-21 09:45:00,
2013-07-21 05:50:00,75.7,43.0,0.00,NNE,31,4.0,4.0,31,0.00,,---,0.00,VWS V14.01,2013-07-21 09:50:00,
2013-07-21 05:56:00,75.7,43.0,0.00,NNE,22,0.0,0.0,31,0.00,,---,0.00,VWS V14.01,2013-07-21 09:56:00,
2013-07-21 06:01:00,75.7,43.0,0.00,NNE,22,0.0,0.0,31,0.00,,---,0.00,VWS V14.01,2013-07-21 10:01:00,
2013-07-21 06:06:00,75.6,42.8,0.00,NNE,14,2.2,3.6,31,0.00,,---,0.00,VWS V14.01,2013-07-21 10:06:00,
2013-07-21 06:11:00,75.6,42.0,0.00,NNE,14,0.0,0.0,30,0.00,,---,0.00,VWS V14.01,2013-07-21 10:11:00,
2013-07-21 06:16:00,75.6,41.1,0.00,North,0,0.0,4.9,29,0.00,,---,0.00,VWS V14.01,2013-07-21 10:16:00,
2013-07-21 06:22:00,75.4,37.2,0.00,North,6,0.0,4.0,25,0.00,,---,0.00,VWS V14.01,2013-07-21 10:22:00,
2013-07-21 06:27:00,75.4,36.1,0.00,NE,35,0.0,0.0,24,0.00,,---,0.00,VWS V14.01,2013-07-21 10:27:00,
2013-07-21 06:33:00,75.4,33.9,0.00,NE,34,2.2,3.6,22,0.00,,---,0.00,VWS V14.01,2013-07-21 10:33:00,
2013-07-21 06:38:00,75.6,34.1,0.00,NNE,27,0.0,0.0,22,0.00,,---,0.00,VWS V14.01,2013-07-21 10:38:00,
2013-07-21 06:44:00,75.7,34.2,0.00,NNE,27,0.0,0.0,22,0.00,,---,0.00,VWS V14.01,2013-07-21 10:44:00,
2013-07-21 06:49:00,75.7,33.1,0.00,NNE,18,2.2,3.1,21,0.00,,---,0.00,VWS V14.01,2013-07-21 10:49:00,
2013-07-21 06:55:00,75.9,33.2,0.00,North,357,2.7,4.0,21,0.00,,---,0.00,VWS V14.01,2013-07-21 10:55:00,
2013-07-21 07:00:00,76.1,33.4,0.00,NNE,23,0.0,0.0,21,0.00,,---,0.00,VWS V14.01,2013-07-21 11:00:00,
2013-07-21 07:05:00,76.1,33.4,0.00,North,353,0.0,0.0,21,0.00,,---,0.00,VWS V14.01,2013-07-21 11:05:00,
2013-07-21 07:11:00,76.3,32.3,0.00,NNE,17,0.0,0.0,20,0.00,,---,0.00,VWS V14.01,2013-07-21 11:11:00,
2013-07-21 07:16:00,76.8,32.8,0.00,North,7,3.1,3.1,20,0.00,,---,0.00,VWS V14.01,2013-07-21 11:16:00,
2013-07-21 07:22:00,77.5,30.7,0.00,North,11,0.0,0.0,18,0.00,,---,0.00,VWS V14.01,2013-07-21 11:22:00,
2013-07-21 07:27:00,77.9,31.0,0.00,NE,56,0.0,0.0,18,0.00,,---,0.00,VWS V14.01,2013-07-21 11:27:00,
2013-07-21 07:32:00,78.4,31.5,0.00,NNE,20,0.0,0.0,18,0.00,,---,0.00,VWS V14.01,2013-07-21 11:32:00,
2013-07-21 07:37:00,79.0,30.5,0.00,NNE,16,0.0,0.0,17,0.00,,---,0.00,VWS V14.01,2013-07-21 11:37:00,
2013-07-21 07:42:00,79.2,30.6,0.00,North,9,0.0,0.0,17,0.00,,---,0.00,VWS V14.01,2013-07-21 11:42:00,
2013-07-21 07:47:00,79.2,30.6,0.00,NNE,16,0.0,2.2,17,0.00,,---,0.00,VWS V14.01,2013-07-21 11:47:00,
2013-07-21 07:53:00,78.8,30.4,0.00,NNE,30,2.7,3.1,17,0.00,,---,0.00,VWS V14.01,2013-07-21 11:53:00,
2013-07-21 07:58:00,78.6,31.6,0.00,NNE,25,2.7,4.0,18,0.00,,---,0.00,VWS V14.01,2013-07-21 11:58:00,
2013-07-21 08:04:00,79.3,30.8,0.00,North,357,0.0,0.0,17,0.00,,---,0.00,VWS V14.01,2013-07-21 12:04:00,
2013-07-21 08:09:00,80.1,31.4,0.00,North,357,0.0,0.0,17,0.00,,---,0.00,VWS V14.01,2013-07-21 12:09:00,
2013-07-21 08:15:00,79.9,31.2,0.00,North,9,0.0,0.0,17,0.00,,---,0.00,VWS V14.01,2013-07-21 12:15:00,
2013-07-21 08:21:00,79.9,31.2,0.00,NNE,21,0.0,0.0,17,0.00,,---,0.00,VWS V14.01,2013-07-21 12:21:00,
2013-07-21 08:26:00,80.4,31.7,0.00,NNW,341,0.0,0.0,17,0.00,,---,0.00,VWS V14.01,2013-07-21 12:26:00,
2013-07-21 08:32:00,80.6,27.0,0.00,NE,36,3.1,3.6,14,0.00,,---,0.00,VWS V14.01,2013-07-21 12:32:00,
2013-07-21 08:37:00,80.2,28.4,0.00,North,3,0.0,3.1,15,0.00,,---,0.00,VWS V14.01,2013-07-21 12:37:00,
2013-07-21 08:43:00,80.2,28.4,0.00,NNE,18,3.6,4.0,15,0.00,,---,0.00,VWS V14.01,2013-07-21 12:43:00,
2013-07-21 08:49:00,80.6,31.8,0.00,NNE,16,3.6,3.6,17,0.00,,---,0.00,VWS V14.01,2013-07-21 12:49:00,
2013-07-21 08:51:00,80.6,27.0,0.00,NNE,25,2.2,3.1,14,0.00,,---,0.00,VWS V14.01,2013-07-21 12:51:00,
2013-07-21 08:57:00,81.3,27.6,0.00,NNE,26,3.1,4.0,14,0.00,,---,0.00,VWS V14.01,2013-07-21 12:57:00,
2013-07-21 09:02:00,81.3,27.6,0.00,NE,38,3.1,4.9,14,0.00,,---,0.00,VWS V14.01,2013-07-21 13:02:00,
2013-07-21 09:07:00,80.8,27.2,0.00,NNE,13,2.2,2.7,14,0.00,,---,0.00,VWS V14.01,2013-07-21 13:07:00,
2013-07-21 09:12:00,82.0,28.2,0.00,North,357,2.7,4.0,14,0.00,,---,0.00,VWS V14.01,2013-07-21 13:12:00,
2013-07-21 09:18:00,81.7,27.9,0.00,NNE,16,2.7,4.5,14,0.00,,---,0.00,VWS V14.01,2013-07-21 13:18:00,
2013-07-21 09:23:00,81.1,27.5,0.00,North,357,0.0,0.0,14,0.00,,---,0.00,VWS V14.01,2013-07-21 13:23:00,
2013-07-21 09:28:00,80.4,28.6,0.00,North,6,0.0,0.0,15,0.00,,---,0.00,VWS V14.01,2013-07-21 13:28:00,
2013-07-21 09:33:00,80.1,28.3,0.00,North,353,4.0,5.4,15,0.00,,---,0.00,VWS V14.01,2013-07-21 13:33:00,
2013-07-21 09:38:00,79.9,28.1,0.00,NNE,26,0.0,0.0,15,0.00,,---,0.00,VWS V14.01,2013-07-21 13:38:00,
2013-07-21 09:43:00,80.8,27.2,0.00,North,8,0.0,0.0,14,0.00,,---,0.00,VWS V14.01,2013-07-21 13:43:00,
2013-07-21 09:49:00,82.2,28.3,0.00,NNE,16,2.7,3.6,14,0.00,,---,0.00,VWS V14.01,2013-07-21 13:49:00,
2013-07-21 09:54:00,82.9,28.9,0.00,WNW,300,3.1,4.0,14,0.00,,---,0.00,VWS V14.01,2013-07-21 13:54:00,
2013-07-21 09:59:00,82.8,28.8,0.00,NNE,21,2.7,5.8,14,0.00,,---,0.00,VWS V14.01,2013-07-21 13:59:00,
2013-07-21 10:04:00,82.9,28.9,0.00,North,4,2.7,2.7,14,0.00,,---,0.00,VWS V14.01,2013-07-21 14:04:00,
2013-07-21 10:10:00,82.4,28.5,0.00,North,357,2.7,3.6,14,0.00,,---,0.00,VWS V14.01,2013-07-21 14:10:00,
2013-07-21 10:15:00,81.7,27.9,0.00,NNE,14,0.0,3.6,14,0.00,,---,0.00,VWS V14.01,2013-07-21 14:15:00,
2013-07-21 10:20:00,81.7,27.9,0.00,NNE,12,3.1,4.9,14,0.00,,---,0.00,VWS V14.01,2013-07-21 14:20:00,
2013-07-21 10:25:00,82.4,28.5,0.00,NNW,342,2.7,4.0,14,0.00,,---,0.00,VWS V14.01,2013-07-21 14:25:00,
2013-07-21 10:31:00,83.1,29.0,0.00,NNW,348,3.6,4.0,14,0.00,,---,0.00,VWS V14.01,2013-07-21 14:31:00,
2013-07-21 10:36:00,83.1,29.0,0.00,NNE,18,0.0,2.2,14,0.00,,---,0.00,VWS V14.01,2013-07-21 14:36:00,
2013-07-21 10:42:00,83.5,29.3,0.00,North,6,0.0,0.0,14,0.00,,---,0.00,VWS V14.01,2013-07-21 14:42:00,
2013-07-21 10:48:00,83.3,29.2,0.00,NNE,22,0.0,2.7,14,0.00,,---,0.00,VWS V14.01,2013-07-21 14:48:00,
2013-07-21 10:53:00,83.7,29.5,0.00,NNW,341,0.0,0.0,14,0.00,,---,0.00,VWS V14.01,2013-07-21 14:53:00,
2013-07-21 10:58:00,84.6,28.4,0.00,NNW,332,0.0,0.0,13,0.00,,---,0.00,VWS V14.01,2013-07-21 14:58:00,
2013-07-21 11:03:00,84.9,28.6,0.00,NNE,16,4.9,4.9,13,0.00,,---,0.00,VWS V14.01,2013-07-21 15:03:00,
2013-07-21 11:08:00,85.3,28.9,0.00,North,349,2.2,4.0,13,0.00,,---,0.00,VWS V14.01,2013-07-21 15:08:00,
2013-07-21 11:14:00,86.2,29.6,0.00,NNW,336,0.0,0.0,13,0.00,,---,0.00,VWS V14.01,2013-07-21 15:14:00,
2013-07-21 11:19:00,87.1,30.3,0.00,NNE,15,3.1,4.9,13,0.00,,---,0.00,VWS V14.01,2013-07-21 15:19:00,
2013-07-21 11:24:00,87.6,30.8,0.00,North,7,3.1,4.0,13,0.00,,---,0.00,VWS V14.01,2013-07-21 15:24:00,
2013-07-21 11:30:00,86.7,30.0,0.00,North,0,2.7,5.8,13,0.00,,---,0.00,VWS V14.01,2013-07-21 15:30:00,
2013-07-21 11:35:00,86.7,30.0,0.00,NNE,15,4.0,5.4,13,0.00,,---,0.00,VWS V14.01,2013-07-21 15:35:00,
2013-07-21 11:41:00,86.5,29.9,0.00,NNE,27,2.2,3.1,13,0.00,,---,0.00,VWS V14.01,2013-07-21 15:41:00,
2013-07-21 11:46:00,87.6,30.8,0.00,NNE,27,2.7,2.7,13,0.00,,---,0.00,VWS V14.01,2013-07-21 15:46:00,
2013-07-21 11:51:00,87.6,30.8,0.00,NNE,22,2.2,3.6,13,0.00,,---,0.00,VWS V14.01,2013-07-21 15:51:00,
2013-07-21 11:56:00,86.9,30.2,0.00,NE,37,3.6,5.8,13,0.00,,---,0.00,VWS V14.01,2013-07-21 15:56:00,
2013-07-21 12:02:00,86.0,29.5,0.00,NNE,21,3.6,4.0,13,0.00,,---,0.00,VWS V14.01,2013-07-21 16:02:00,
2013-07-21 12:07:00,86.4,29.8,0.00,WNW,301,3.1,3.6,13,0.00,,---,0.00,VWS V14.01,2013-07-21 16:07:00,
2013-07-21 12:13:00,86.2,29.6,0.00,North,0,2.7,3.6,13,0.00,,---,0.00,VWS V14.01,2013-07-21 16:13:00,
2013-07-21 12:19:00,85.8,29.4,0.00,North,353,4.0,4.0,13,0.00,,---,0.00,VWS V14.01,2013-07-21 16:19:00,
2013-07-21 12:24:00,85.5,29.1,0.00,NNE,16,4.0,5.4,13,0.00,,---,0.00,VWS V14.01,2013-07-21 16:24:00,
2013-07-21 12:30:00,85.5,29.1,0.00,NNE,17,5.4,5.4,13,0.00,,---,0.00,VWS V14.01,2013-07-21 16:30:00,
2013-07-21 12:35:00,86.5,29.9,0.00,NE,34,2.2,3.6,13,0.00,,---,0.00,VWS V14.01,2013-07-21 16:35:00,
2013-07-21 12:41:00,86.5,29.9,0.00,NNW,345,3.6,3.6,13,0.00,,---,0.00,VWS V14.01,2013-07-21 16:41:00,
2013-07-21 12:46:00,86.5,29.9,0.00,North,357,0.0,0.0,13,0.00,,---,0.00,VWS V14.01,2013-07-21 16:46:00,
2013-07-21 12:52:00,87.8,30.9,0.00,NW,305,0.0,0.0,13,0.00,,---,0.00,VWS V14.01,2013-07-21 16:52:00,
2013-07-21 12:58:00,88.2,31.2,0.00,NE,49,0.0,3.1,13,0.00,,---,0.00,VWS V14.01,2013-07-21 16:58:00,
2013-07-21 13:03:00,88.3,31.3,0.00,ENE,73,0.0,0.0,13,0.00,,---,0.00,VWS V14.01,2013-07-21 17:03:00,
2013-07-21 13:09:00,89.1,31.9,0.00,NNE,21,2.7,3.1,13,0.00,,---,0.00,VWS V14.01,2013-07-21 17:09:00,
2013-07-21 13:15:00,88.9,31.7,0.00,North,8,6.3,6.3,13,0.00,,---,0.00,VWS V14.01,2013-07-21 17:15:00,
2013-07-21 13:20:00,89.2,32.0,0.00,NNW,342,4.0,5.4,13,0.00,,---,0.00,VWS V14.01,2013-07-21 17:20:00,
2013-07-21 13:26:00,88.9,31.7,0.00,North,353,4.9,4.9,13,0.00,,---,0.00,VWS V14.01,2013-07-21 17:26:00,
2013-07-21 13:31:00,89.1,31.9,0.00,NNW,333,2.7,2.7,13,0.00,,---,0.00,VWS V14.01,2013-07-21 17:31:00,
2013-07-21 13:37:00,88.9,31.7,0.00,North,9,3.1,3.1,13,0.00,,---,0.00,VWS V14.01,2013-07-21 17:37:00,
2013-07-21 13:43:00,88.9,31.7,0.00,NNW,327,0.0,2.7,13,0.00,,---,0.00,VWS V14.01,2013-07-21 17:43:00,
2013-07-21 13:48:00,89.4,32.2,0.00,SSE,163,2.7,3.6,13,0.00,,---,0.00,VWS V14.01,2013-07-21 17:48:00,
2013-07-21 13:54:00,90.1,30.7,0.00,NNE,23,3.6,3.6,12,0.00,,---,0.00,VWS V14.01,2013-07-21 17:54:00,
2013-07-21 13:59:00,90.0,30.6,0.00,NNE,21,2.7,3.6,12,0.00,,---,0.00,VWS V14.01,2013-07-21 17:59:00,
2013-07-21 14:05:00,88.7,31.6,0.00,NNE,15,0.0,3.1,13,0.00,,---,0.00,VWS V14.01,2013-07-21 18:05:00,
2013-07-21 14:10:00,88.2,31.2,0.00,NNE,27,3.6,3.6,13,0.00,,---,0.00,VWS V14.01,2013-07-21 18:10:00,
2013-07-21 14:16:00,87.3,30.5,0.00,NNE,23,0.0,0.0,13,0.00,,---,0.00,VWS V14.01,2013-07-21 18:16:00,
2013-07-21 14:21:00,87.1,30.3,0.00,North,357,0.0,0.0,13,0.00,,---,0.00,VWS V14.01,2013-07-21 18:21:00,
2013-07-21 14:27:00,87.1,30.3,0.00,NNE,27,0.0,0.0,13,0.00,,---,0.00,VWS V14.01,2013-07-21 18:27:00,
2013-07-21 14:33:00,87.1,30.3,0.00,North,5,3.6,3.6,13,0.00,,---,0.00,VWS V14.01,2013-07-21 18:33:00,
2013-07-21 14:38:00,87.6,30.8,0.00,NNE,12,0.0,0.0,13,0.00,,---,0.00,VWS V14.01,2013-07-21 18:38:00,
2013-07-21 14:44:00,88.2,31.2,0.00,NW,319,0.0,0.0,13,0.00,,---,0.00,VWS V14.01,2013-07-21 18:44:00,
2013-07-21 14:49:00,88.5,31.5,0.00,NNE,28,0.0,0.0,13,0.00,,---,0.00,VWS V14.01,2013-07-21 18:49:00,
2013-07-21 14:55:00,88.9,31.7,0.00,North,357,0.0,0.0,13,0.00,,---,0.00,VWS V14.01,2013-07-21 18:55:00,
2013-07-21 15:01:00,89.2,32.0,0.00,NNE,12,2.7,3.6,13,0.00,,---,0.00,VWS V14.01,2013-07-21 19:01:00,
2013-07-21 15:06:00,89.2,32.0,0.00,North,353,0.0,3.6,13,0.00,,---,0.00,VWS V14.01,2013-07-21 19:06:00,
2013-07-21 15:12:00,89.6,30.3,0.00,North,6,5.4,5.4,12,0.00,,---,0.00,VWS V14.01,2013-07-21 19:12:00,
2013-07-21 15:17:00,89.4,32.2,0.00,South,182,0.0,0.0,13,0.00,,---,0.00,VWS V14.01,2013-07-21 19:17:00,
2013-07-21 15:23:00,89.4,32.2,0.00,NNW,348,0.0,2.2,13,0.00,,---,0.00,VWS V14.01,2013-07-21 19:23:00,
2013-07-21 15:29:00,89.4,32.2,0.00,NW,326,0.0,0.0,13,0.00,,---,0.00,VWS V14.01,2013-07-21 19:29:00,
2013-07-21 15:35:00,90.0,30.6,0.00,North,357,0.0,0.0,12,0.00,,---,0.00,VWS V14.01,2013-07-21 19:35:00,
2013-07-21 15:40:00,90.0,30.6,0.00,ESE,119,0.0,0.0,12,0.00,,---,0.00,VWS V14.01,2013-07-21 19:40:00,
2013-07-21 15:45:00,89.8,30.5,0.00,NW,308,0.0,0.0,12,0.00,,---,0.00,VWS V14.01,2013-07-21 19:45:00,
2013-07-21 15:51:00,90.0,30.6,0.00,NW,310,0.0,0.0,12,0.00,,---,0.00,VWS V14.01,2013-07-21 19:51:00,
2013-07-21 15:56:00,89.4,32.2,0.00,NNW,331,0.0,0.0,13,0.00,,---,0.00,VWS V14.01,2013-07-21 19:56:00,
2013-07-21 16:01:00,89.4,32.2,0.00,West,280,0.0,2.7,13,0.00,,---,0.00,VWS V14.01,2013-07-21 20:01:00,
2013-07-21 16:07:00,89.2,32.0,0.00,NE,55,0.0,0.0,13,0.00,,---,0.00,VWS V14.01,2013-07-21 20:07:00,
2013-07-21 16:12:00,89.2,32.0,0.00,North,0,0.0,0.0,13,0.00,,---,0.00,VWS V14.01,2013-07-21 20:12:00,
2013-07-21 16:18:00,89.2,32.0,0.00,SSE,147,2.2,2.2,13,0.00,,---,0.00,VWS V14.01,2013-07-21 20:18:00,
2013-07-21 16:23:00,89.1,31.9,0.00,ESE,113,0.0,0.0,13,0.00,,---,0.00,VWS V14.01,2013-07-21 20:23:00,
2013-07-21 16:29:00,88.9,31.7,0.00,North,357,2.7,3.1,13,0.00,,---,0.00,VWS V14.01,2013-07-21 20:29:00,
2013-07-21 16:34:00,88.7,31.6,0.00,NNW,344,3.1,4.0,13,0.00,,---,0.00,VWS V14.01,2013-07-21 20:34:00,
2013-07-21 16:39:00,88.3,31.3,0.00,NNE,31,3.6,4.0,13,0.00,,---,0.00,VWS V14.01,2013-07-21 20:39:00,
2013-07-21 16:45:00,88.2,31.2,0.00,SSW,209,2.7,3.6,13,0.00,,---,0.00,VWS V14.01,2013-07-21 20:45:00,
2013-07-21 16:50:00,88.2,31.2,0.00,North,5,0.0,0.0,13,0.00,,---,0.00,VWS V14.01,2013-07-21 20:50:00,
2013-07-21 16:56:00,88.0,31.0,0.00,NW,325,0.0,0.0,13,0.00,,---,0.00,VWS V14.01,2013-07-21 20:56:00,
2013-07-21 17:01:00,88.0,31.0,0.00,NNE,30,2.7,3.6,13,0.00,,---,0.00,VWS V14.01,2013-07-21 21:01:00,
2013-07-21 17:06:00,88.2,31.2,0.00,North,8,4.5,4.5,13,0.00,,---,0.00,VWS V14.01,2013-07-21 21:06:00,
2013-07-21 17:12:00,88.5,31.5,0.00,North,8,0.0,0.0,13,0.00,,---,0.00,VWS V14.01,2013-07-21 21:12:00,
2013-07-21 17:18:00,88.0,31.0,0.00,NW,313,0.0,0.0,13,0.00,,---,0.00,VWS V14.01,2013-07-21 21:18:00,
2013-07-21 17:24:00,87.3,30.5,0.00,NNW,343,0.0,0.0,13,0.00,,---,0.00,VWS V14.01,2013-07-21 21:24:00,
2013-07-21 17:29:00,87.1,30.3,0.00,NNW,343,0.0,2.2,13,0.00,,---,0.00,VWS V14.01,2013-07-21 21:29:00,
2013-07-21 17:35:00,86.9,30.2,0.00,North,357,2.2,2.7,13,0.00,,---,0.00,VWS V14.01,2013-07-21 21:35:00,
2013-07-21 17:40:00,86.7,30.0,0.00,NNW,348,0.0,0.0,13,0.00,,---,0.00,VWS V14.01,2013-07-21 21:40:00,
2013-07-21 17:46:00,86.2,29.6,0.00,NNW,348,0.0,0.0,13,0.00,,---,0.00,VWS V14.01,2013-07-21 21:46:00,
2013-07-21 17:52:00,85.6,29.2,0.00,NNW,348,0.0,0.0,13,0.00,,---,0.00,VWS V14.01,2013-07-21 21:52:00,
2013-07-21 17:57:00,85.5,29.1,0.00,NNW,348,0.0,0.0,13,0.00,,---,0.00,VWS V14.01,2013-07-21 21:57:00,
2013-07-21 18:03:00,85.6,29.2,0.00,NNW,328,0.0,0.0,13,0.00,,---,0.00,VWS V14.01,2013-07-21 22:03:00,
2013-07-21 18:08:00,85.6,29.2,0.00,NNW,328,0.0,0.0,13,0.00,,---,0.00,VWS V14.01,2013-07-21 22:08:00,
2013-07-21 18:14:00,85.5,29.1,0.00,NNW,328,0.0,0.0,13,0.00,,---,0.00,VWS V14.01,2013-07-21 22:14:00,
2013-07-21 18:20:00,85.3,28.9,0.00,NW,319,0.0,0.0,13,0.00,,---,0.00,VWS V14.01,2013-07-21 22:20:00,
2013-07-21 18:25:00,85.5,29.1,0.00,North,7,0.0,0.0,13,0.00,,---,0.00,VWS V14.01,2013-07-21 22:25:00,
2013-07-21 18:31:00,85.8,29.4,0.00,NW,310,0.0,0.0,13,0.00,,---,0.00,VWS V14.01,2013-07-21 22:31:00,
2013-07-21 18:37:00,86.2,29.6,0.00,North,0,0.0,0.0,13,0.00,,---,0.00,VWS V14.01,2013-07-21 22:37:00,
2013-07-21 18:43:00,85.8,29.4,0.00,NNE,27,0.0,0.0,13,0.00,,---,0.00,VWS V14.01,2013-07-21 22:43:00,
2013-07-21 18:49:00,85.5,29.1,0.00,NNE,27,0.0,0.0,13,0.00,,---,0.00,VWS V14.01,2013-07-21 22:49:00,
2013-07-21 18:54:00,84.9,28.6,0.00,NNE,27,0.0,0.0,13,0.00,,---,0.00,VWS V14.01,2013-07-21 22:54:00,
2013-07-21 19:00:00,84.6,28.4,0.00,NNE,28,0.0,0.0,13,0.00,,---,0.00,VWS V14.01,2013-07-21 23:00:00,
2013-07-21 19:05:00,84.2,28.1,0.00,NNE,28,0.0,0.0,13,0.00,,---,0.00,VWS V14.01,2013-07-21 23:05:00,
2013-07-21 19:11:00,84.0,29.8,0.00,NNE,24,0.0,0.0,14,0.00,,---,0.00,VWS V14.01,2013-07-21 23:11:00,
2013-07-21 19:16:00,84.0,29.8,0.00,ENE,64,0.0,0.0,14,0.00,,---,0.00,VWS V14.01,2013-07-21 23:16:00,
2013-07-21 19:22:00,83.8,29.6,0.00,South,172,0.0,0.0,14,0.00,,---,0.00,VWS V14.01,2013-07-21 23:22:00,
2013-07-21 19:27:00,83.7,29.5,0.00,SSE,165,0.0,0.0,14,0.00,,---,0.00,VWS V14.01,2013-07-21 23:27:00,
2013-07-21 19:33:00,83.1,29.0,0.00,East,79,0.0,0.0,14,0.00,,---,0.00,VWS V14.01,2013-07-21 23:33:00,
2013-07-21 19:39:00,82.8,28.8,0.00,West,276,0.0,0.0,14,0.00,,---,0.00,VWS V14.01,2013-07-21 23:39:00,
2013-07-21 19:45:00,82.4,28.5,0.00,West,276,0.0,0.0,14,0.00,,---,0.00,VWS V14.01,2013-07-21 23:45:00,
2013-07-21 19:50:00,82.2,28.3,0.00,West,276,0.0,0.0,14,0.00,,---,0.00,VWS V14.01,2013-07-21 23:50:00,
2013-07-21 19:55:00,81.9,28.0,0.00,West,276,0.0,0.0,14,0.00,,---,0.00,VWS V14.01,2013-07-21 23:55:00,
2013-07-21 20:01:00,81.5,27.8,0.00,WNW,284,0.0,0.0,14,0.00,,---,0.00,VWS V14.01,2013-07-22 00:01:00,
2013-07-21 20:06:00,81.1,27.5,0.00,WNW,284,0.0,0.0,14,0.00,,---,0.00,VWS V14.01,2013-07-22 00:06:00,
2013-07-21 20:12:00,80.8,27.2,0.00,WNW,284,0.0,0.0,14,0.00,,---,0.00,VWS V14.01,2013-07-22 00:12:00,
2013-07-21 20:17:00,80.4,28.6,0.00,WNW,284,0.0,0.0,15,0.00,,---,0.00,VWS V14.01,2013-07-22 00:17:00,
2013-07-21 20:23:00,80.1,28.3,0.00,WNW,284,0.0,0.0,15,0.00,,---,0.00,VWS V14.01,2013-07-22 00:23:00,
2013-07-21 20:28:00,79.9,28.1,0.00,WNW,284,0.0,0.0,15,0.00,,---,0.00,VWS V14.01,2013-07-22 00:28:00,
2013-07-21 20:33:00,79.7,28.0,0.00,WNW,284,0.0,0.0,15,0.00,,---,0.00,VWS V14.01,2013-07-22 00:33:00,
2013-07-21 20:39:00,79.5,27.9,0.00,WNW,284,0.0,0.0,15,0.00,,---,0.00,VWS V14.01,2013-07-22 00:39:00,
2013-07-21 20:44:00,79.5,27.9,0.00,WNW,284,0.0,0.0,15,0.00,,---,0.00,VWS V14.01,2013-07-22 00:44:00,
2013-07-21 20:49:00,79.3,27.7,0.00,WNW,284,0.0,0.0,15,0.00,,---,0.00,VWS V14.01,2013-07-22 00:49:00,
2013-07-21 20:54:00,79.2,27.6,0.00,WNW,284,0.0,0.0,15,0.00,,---,0.00,VWS V14.01,2013-07-22 00:54:00,
2013-07-21 20:59:00,79.0,27.4,0.00,WNW,284,0.0,0.0,15,0.00,,---,0.00,VWS V14.01,2013-07-22 00:59:00,
2013-07-21 21:05:00,78.8,27.3,0.00,WNW,284,0.0,0.0,15,0.00,,---,0.00,VWS V14.01,2013-07-22 01:05:00,
2013-07-21 21:10:00,78.8,27.3,0.00,WNW,284,0.0,0.0,15,0.00,,---,0.00,VWS V14.01,2013-07-22 01:10:00,
2013-07-21 21:16:00,78.6,27.1,0.00,WNW,284,0.0,0.0,15,0.00,,---,0.00,VWS V14.01,2013-07-22 01:16:00,
2013-07-21 21:21:00,78.3,26.9,0.00,WNW,284,0.0,0.0,15,0.00,,---,0.00,VWS V14.01,2013-07-22 01:21:00,
2013-07-21 21:26:00,78.1,26.7,0.00,WNW,284,0.0,0.0,15,0.00,,---,0.00,VWS V14.01,2013-07-22 01:26:00,
2013-07-21 21:32:00,77.9,26.6,0.00,WNW,284,0.0,0.0,15,0.00,,---,0.00,VWS V14.01,2013-07-22 01:32:00,
2013-07-21 21:37:00,77.9,26.6,0.00,WNW,284,0.0,0.0,15,0.00,,---,0.00,VWS V14.01,2013-07-22 01:37:00,
2013-07-21 21:43:00,77.7,26.4,0.00,WNW,284,0.0,0.0,15,0.00,,---,0.00,VWS V14.01,2013-07-22 01:43:00,
2013-07-21 21:48:00,77.5,26.3,0.00,WNW,284,0.0,0.0,15,0.00,,---,0.00,VWS V14.01,2013-07-22 01:48:00,
2013-07-21 21:54:00,77.2,26.0,0.00,WNW,284,0.0,0.0,15,0.00,,---,0.00,VWS V14.01,2013-07-22 01:54:00,
2013-07-21 21:59:00,77.0,25.9,0.00,WNW,284,0.0,0.0,15,0.00,,---,0.00,VWS V14.01,2013-07-22 01:59:00,
2013-07-21 22:05:00,76.8,25.7,0.00,WNW,284,0.0,0.0,15,0.00,,---,0.00,VWS V14.01,2013-07-22 02:05:00,
2013-07-21 22:10:00,76.6,25.6,0.00,WNW,284,0.0,0.0,15,0.00,,---,0.00,VWS V14.01,2013-07-22 02:10:00,
2013-07-21 22:15:00,76.6,25.6,0.00,WNW,284,0.0,0.0,15,0.00,,---,0.00,VWS V14.01,2013-07-22 02:15:00,
2013-07-21 22:21:00,76.6,25.6,0.00,WNW,284,0.0,0.0,15,0.00,,---,0.00,VWS V14.01,2013-07-22 02:21:00,
2013-07-21 22:26:00,76.6,25.6,0.00,WNW,284,0.0,0.0,15,0.00,,---,0.00,VWS V14.01,2013-07-22 02:26:00,
2013-07-21 22:32:00,76.5,25.4,0.00,WNW,284,0.0,0.0,15,0.00,,---,0.00,VWS V14.01,2013-07-22 02:32:00,
2013-07-21 22:37:00,76.5,25.4,0.00,WNW,284,0.0,0.0,15,0.00,,---,0.00,VWS V14.01,2013-07-22 02:37:00,
2013-07-21 22:43:00,76.3,25.3,0.00,WNW,284,0.0,0.0,15,0.00,,---,0.00,VWS V14.01,2013-07-22 02:43:00,
2013-07-21 22:49:00,76.3,25.3,0.00,WNW,284,0.0,0.0,15,0.00,,---,0.00,VWS V14.01,2013-07-22 02:49:00,
2013-07-21 22:54:00,76.3,25.3,0.00,WNW,284,0.0,0.0,15,0.00,,---,0.00,VWS V14.01,2013-07-22 02:54:00,
2013-07-21 23:00:00,76.3,25.3,0.00,WNW,284,0.0,0.0,15,0.00,,---,0.00,VWS V14.01,2013-07-22 03:00:00,
2013-07-21 23:05:00,76.1,25.1,0.00,WNW,284,0.0,0.0,15,0.00,,---,0.00,VWS V14.01,2013-07-22 03:05:00,
2013-07-21 23:11:00,75.9,25.0,0.00,WNW,284,0.0,0.0,15,0.00,,---,0.00,VWS V14.01,2013-07-22 03:11:00,
2013-07-21 23:16:00,75.9,25.0,0.00,WNW,284,0.0,0.0,15,0.00,,---,0.00,VWS V14.01,2013-07-22 03:16:00,
2013-07-21 23:22:00,75.7,24.9,0.00,WNW,284,0.0,0.0,15,0.00,,---,0.00,VWS V14.01,2013-07-22 03:22:00,
2013-07-21 23:28:00,75.7,24.9,0.00,WNW,284,0.0,0.0,15,0.00,,---,0.00,VWS V14.01,2013-07-22 03:28:00,
2013-07-21 23:34:00,75.7,24.9,0.00,WNW,284,0.0,0.0,15,0.00,,---,0.00,VWS V14.01,2013-07-22 03:34:00,
2013-07-21 23:39:00,75.7,24.9,0.00,WNW,284,0.0,0.0,15,0.00,,---,0.00,VWS V14.01,2013-07-22 03:39:00,
2013-07-21 23:44:00,75.6,24.7,0.00,WNW,284,0.0,0.0,15,0.00,,---,0.00,VWS V14.01,2013-07-22 03:44:00,
2013-07-21 23:50:00,75.4,24.6,0.00,WNW,284,0.0,0.0,15,0.00,,---,0.00,VWS V14.01,2013-07-22 03:50:00,
2013-07-21 23:56:00,75.4,24.6,0.00,WNW,284,0.0,0.0,15,0.00,,---,0.00,VWS V14.01,2013-07-22 03:56:00,